User: anonymous   Login
Location: Ballingbuur
(53.0000°N, 5.7667°E)
Time: 02:04:48
(UTC+00:00)
Language:

ATLAS CENTAUR R/B - Orbit

View from above orbital plane
View from above orbital plane
View from above satellite
View from above satellite

Ground track
Ground track

The orbit data is extracted from the following two-line orbital elements,

1 38770U 12048N   21055.14756608 0.00000245  00000-0  16444-4 0    07
2 38770  64.6479  87.1107 0146113  48.5115 311.1051 14.98170047    00
Epoch (UTC): 24 February 2021 03:32:29
Eccentricity: 0.0146113
inclination: 64.6479°
perigee height: 471 km
apogee height: 674 km
right ascension of ascending node: 87.1107°
argument of perigee: 48.5115°
revolutions per day: 14.98170047
mean anomaly at epoch: 311.1051°
orbit number at epoch: 0

The dashed part of the orbit path shows where the satellite is in the earth's shadow,  

DLR